{"data":{"norad_id":63894,"epoch":"2026-09-19T02:37:53.140512Z","epoch_age_seconds":267128,"freshness":"STALE","line1":"1 63894U 25095E   26262.10964283  .00006365  00000+0  24061-3 0  9997","line2":"2 63894  43.0012 163.4742 0001202 272.6903  87.3811 15.27582685 77374","mean_motion":15.27582685,"eccentricity":0.0001202,"inclination_deg":43.0012,"raan_deg":163.4742,"arg_perigee_deg":272.6903,"mean_anomaly_deg":87.3811,"bstar":0.00024061,"rev_number":7737,"period_min":94.266583022967,"perigee_km":482.21634259315,"apogee_km":483.86576979786,"semimajor_km":6861.1780561955,"source":"CELESTRAK","updated_at":"2026-09-21T09:00:35.143341Z"}}